Showing default

TOMORROW-S1, 60479

Orbit data source: Space-Track

TOMORROW-S1, 60479 is a payload satellite owned by Tomorrow.io (US) in SSO that was launched on Fri, 16 Aug 2024 UTC via an FALCON 9 launch vehicle from the Air Force Western Test Range (AFWTR). Payload-class satellites include a variety of spacecraft equipped with specific instruments for various scientific and technological missions. These include communications satellites like Starlink; space stations such as the ISS; scientific satellites like the Hubble; Earth observation satellites from companies like Planet Labs, Umbra, and HawkEye 360; GPS; miniature CubeSats for education and research; and military/defense satellites.

Loading next visibility...
Identifier
60479, 2024-149M
Orbit
SSO
Country
Flag of USUS
Related business
Manufacturer
Blue Canyon
Mission
Operational Commercial Weather
Bus & Motor
CUBESAT 6U, Unknown motor
Mass
12 kg wet, 12 kg dry
Launch date (UTC)
2024-08-16 (1 year ago)
Launch vehicle
FALCON 9
Launch site
Air Force Western Test Range (AFWTR)
Object type
Payload
Rocket body
Debris
Shape & HBR
Box + 2 Pan, 1.0 m
Radar Cross Section
0.138 m², Medium (>0.1 m² and < 1m²)

Expand to show TLE details & history
Last TLE update: 10 hours ago

TLE from 10 hours ago
0 TOMORROW-S1
1 60479U 24149M   25353.69075163  .00005686  00000-0  20215-3 0  9999
2 60479  97.3930  69.9935 0003515 145.2070 214.9401 15.29389968 74623
Epoch: 2025-12-19T16:34Z
TLE epoch observation values (Epoch: 2025-12-19T16:34:40.940Z)
Latitude
-0.00001°
Longitude
92.79464°
Altitude
482.714 km
Speed
7.623 km/s
True Right ascension
04h 39m 58s
True Declination
0° 00' 00"
Sunlit
Object was in full shadow at epoch
Visualization orbit readout
Latitude
Unknown
Longitude
Unknown
Altitude
Unknown
Speed
Unknown
Apparent Right ascension
Unknown
Apparent Declination
Unknown
Sunlit
N/A
Visualization observer readout
Local Sidereal Time
01:53:19
Azimuth
Unknown
Elevation
Unknown
Doppler factor
Unknown
Orbital elements
Apogee altitude
476.996 km
Perigee altitude
472.179 km
Semi-major axis
6,852.725 km
Eccentricity
0.00035
Inclination
97.393°
RAAN
69.9935°
Arg. of periapsis
145.207°
True anomaly
214.91704°
Mean anomaly
214.9401°
Eccentric anomaly
214.92857°
Mean motion
3.82603 °/min
Orbital period
94.09 mins
BSTAR
0.00020215
Loading maneuver chart data...
Computing Atmospheric mass density...
Loading historical data...
Loading historical data...
Loading historical data...
Loading historical data...
Loading historical data...
Loading historical data...
Loading historical data...

Documentation

Showing up to 5 results
|